This is the latest recevied weather packets stored in our database for station/object IZ1UQG-N2. If no packets are shown the sender has not sent any weather packets the latest 10 day(s).
| Time | Temp. | Humidity | Pressure | Rain* | Wind** | Luminosity | Snow |
|---|---|---|---|---|---|---|---|
| 1777640547 | 18.89° C | 37% | 1024.4 hPa | 0 mm | - | 759 W/m² | - |
| 1777640527 | 18.89° C | 37% | 1024.4 hPa | 0 mm | - | 759 W/m² | - |
| 1777640497 | 18.89° C | 36% | 1024.5 hPa | 0 mm | - | 766 W/m² | - |
| 1777640487 | 18.33° C | 37% | 1024.5 hPa | 0 mm | - | 761 W/m² | - |
| 1777640427 | 18.33° C | 36% | 1024.3 hPa | 0 mm | - | 761 W/m² | - |
| 1777640368 | 18.89° C | 36% | 1024.3 hPa | 0 mm | - | 763 W/m² | - |
| 1777640347 | 18.89° C | 37% | 1024.3 hPa | 0 mm | - | 765 W/m² | - |
| 1777640312 | 18.33° C | 37% | 1024.6 hPa | 0 mm | - | 770 W/m² | - |
| 1777640307 | 18.89° C | 37% | 1024.3 hPa | 0 mm | - | 765 W/m² | - |
| 1777640247 | 18.89° C | 36% | 1024.5 hPa | 0 mm | - | 766 W/m² | - |
| 1777640187 | 18.89° C | 37% | 1024.6 hPa | 0 mm | - | 766 W/m² | - |
| 1777640167 | 18.89° C | 37% | 1024.6 hPa | 0 mm | - | 766 W/m² | - |
| 1777640126 | 18.33° C | 37% | 1024.6 hPa | 0 mm | - | 770 W/m² | - |
| 1777640067 | 18.33° C | 37% | 1024.6 hPa | 0 mm | - | 770 W/m² | - |
| 1777640008 | 18.33° C | 36% | 1024.6 hPa | 0 mm | - | 770 W/m² | - |
| 1777639988 | 18.33° C | 36% | 1024.6 hPa | 0 mm | - | 770 W/m² | - |
| 1777639947 | 18.33° C | 37% | 1024.5 hPa | 0 mm | - | 772 W/m² | - |
| 1777639887 | 18.33° C | 37% | 1024.6 hPa | 0 mm | - | 770 W/m² | - |
| 1777639827 | 18.33° C | 37% | 1024.7 hPa | 0 mm | - | 772 W/m² | - |
| 1777639806 | 18.33° C | 37% | 1024.7 hPa | 0 mm | - | 772 W/m² | - |
| 1777639766 | 18.33° C | 37% | 1024.7 hPa | 0 mm | - | 773 W/m² | - |
| 1777639708 | 18.33° C | 37% | 1024.7 hPa | 0 mm | - | 775 W/m² | - |
| 1777639648 | 18.33° C | 36% | 1024.6 hPa | 0 mm | - | 779 W/m² | - |
| 1777639627 | 18.33° C | 36% | 1024.6 hPa | 0 mm | - | 779 W/m² | - |
| 1777639587 | 18.33° C | 37% | 1024.6 hPa | 0 mm | - | 781 W/m² | - |
* Rain latest hour (hover to see other rain measurements)
** Current wind speed in m/s (hover to see current wind gust speed)